Weather in Zhukovo

Russia / Tver Oblast     57°24′10″N   33°50′10″E
temp.,
°C
wind,
m/s
gust,
m/s
humid.,
%
clouds,
%
prec.,
mm/h
press.,
hPa
HPBL,
m
2 december, thu
thu200:00−8w41093100 0.1 995658
03:00−8wsw41093100 0.3 996479
06:00−9wsw3895100 0.1 997313
09:00−8ssw2595100 0.1 997239
12:00−6s2591100 0.0 997288
15:00−5ese3795100 1.1 995394
18:00−5se4109598 1.4 994552
21:00−4se3896100 2.1 993352
3 december, fri
fri300:00−2s2997100 1.4 992437
03:000ssw3998100 1.8 992661
06:00−1ssw4119576 0.3 993552
09:00−1ssw4109378 0.3 995671
12:00−1ssw51190100 0.1 996901
15:00−1ssw51185100 0.2 996884
18:00−2ssw41191100 0.1 996759
21:00−2ssw4119398 0.3 996800
4 december, sat
sat400:00−3ssw5138972 0.1 996760
03:00−3ssw51294100 0.4 9951045
06:00−4wsw51294100 0.8 996941
09:00−5w61391100 1.3 999753
12:00−5w51189100 0.1 1002845
15:00−6w51190100 0.3 1005718
18:00−8w4109195 0.1 1008532
21:00−9w399487 0.1 1011310
5 december, sun
sun500:00−12wsw249898 0.0 101372
03:00−14wsw1110090 0.1 101518
06:00−15ssw11100100 0.0 101610
09:00−11e1197100 0.0 101738
12:00−7ese2393100 0.1 1018182
15:00−7e369596 0.2 1018253
18:00−7e3895100 0.3 1019293
21:00−7e41095100 1.0 1019330
6 december, mon
mon600:00−6e41295100 0.8 1020431
03:00−7e51393100 1.6 1020468
06:00−7e51493100 0.5 1020512
09:00−7e51492100 0.8 1020608
12:00−6ese51593100 1.1 1020634
15:00−5ese51391100 1.4 1020662
18:00−6ese51293100 0.2 1020509
21:00−5ese41095100 0.6 1019445